When you browse on this site, cookies collect data to enhance your experience and personalize the content and advertising you see.
Visit our Privacy Policy to learn more. By continuing to use the site, you agree to this use of cookies and data.
  • In Lithuania
  • List of Countries
  • For 7 days
  • Water Temperature
  • Satellite Maps
  • Weather Map
  • Weather Widgets
  • user-avatar
    Login

    Hourly Weather Dinhata

    Today, 13 December, Thursday

    Time Temperature Precipitation Wind Pressure Humidity
    00:00 +20°C° 0 mm 2 mps 760 mmHg 47%
    01:00 +19°C° 0 mm 2 mps 760 mmHg 47%
    02:00 +19°C° 0 mm 2 mps 760 mmHg 47%
    03:00 +19°C° 0 mm 1 mps 760 mmHg 47%
    04:00 +18°C° 0 mm 2 mps 760 mmHg 48%
    05:00 +18°C° 0 mm 2 mps 760 mmHg 49%
    06:00 +18°C° 0 mm 2 mps 760 mmHg 51%
    07:00 +19°C° 0 mm 2 mps 760 mmHg 49%
    08:00 +21°C° 0 mm 3 mps 760 mmHg 47%
    09:00 +22°C° 0 mm 3 mps 760 mmHg 45%
    10:00 +25°C° 0 mm 3 mps 760 mmHg 42%
    11:00 +26°C° 0 mm 3 mps 760 mmHg 40%
    12:00 +28°C° 0 mm 4 mps 760 mmHg 37%
    13:00 +28°C° 0 mm 3 mps 759 mmHg 37%
    14:00 +28°C° 0 mm 3 mps 758 mmHg 36%
    15:00 +29°C° 0 mm 3 mps 758 mmHg 36%
    16:00 +27°C° 0 mm 3 mps 758 mmHg 40%
    17:00 +25°C° 0 mm 2 mps 758 mmHg 44%
    18:00 +24°C° 0 mm 2 mps 759 mmHg 45%
    19:00 +23°C° 0 mm 2 mps 759 mmHg 46%
    20:00 +23°C° 0 mm 2 mps 759 mmHg 46%
    21:00 +21°C° 0 mm 2 mps 760 mmHg 47%
    22:00 +20°C° 0 mm 2 mps 760 mmHg 46%
    23:00 +20°C° 0 mm 2 mps 760 mmHg 46%

    Tomorrow, 14 December, Friday

    Time Temperature Precipitation Wind Pressure Humidity
    00:00 +20°C° 0 mm 2 mps 761 mmHg 46%
    01:00 +19°C° 0 mm 2 mps 761 mmHg 45%
    02:00 +19°C° 0 mm 2 mps 760 mmHg 44%
    03:00 +18°C° 0 mm 2 mps 760 mmHg 44%
    04:00 +18°C° 0 mm 2 mps 760 mmHg 45%
    05:00 +18°C° 0 mm 2 mps 760 mmHg 45%
    06:00 +17°C° 0 mm 2 mps 760 mmHg 46%
    07:00 +19°C° 0 mm 2 mps 760 mmHg 44%
    08:00 +20°C° 0 mm 2 mps 761 mmHg 43%
    09:00 +23°C° 0 mm 2 mps 761 mmHg 41%
    10:00 +24°C° 0 mm 3 mps 761 mmHg 38%
    11:00 +26°C° 0 mm 3 mps 760 mmHg 35%
    12:00 +27°C° 0 mm 3 mps 760 mmHg 33%
    13:00 +28°C° 0 mm 2 mps 760 mmHg 33%
    14:00 +28°C° 0 mm 2 mps 759 mmHg 32%
    15:00 +28°C° 0 mm 2 mps 759 mmHg 32%
    16:00 +27°C° 0 mm 2 mps 759 mmHg 36%
    17:00 +25°C° 0 mm 1 mps 759 mmHg 40%
    18:00 +24°C° 0 mm 1 mps 760 mmHg 44%
    19:00 +23°C° 0 mm 1 mps 760 mmHg 45%
    20:00 +22°C° 0 mm 1 mps 761 mmHg 47%
    21:00 +22°C° 0 mm 1 mps 761 mmHg 48%
    22:00 +20°C° 0 mm 2 mps 761 mmHg 47%
    23:00 +20°C° 0 mm 2 mps 762 mmHg 47%

    Day after tomorrow, 15 December, Saturday

    Time Temperature Precipitation Wind Pressure Humidity
    00:00 +19°C° 0 mm 2 mps 762 mmHg 46%
    01:00 +19°C° 0 mm 2 mps 762 mmHg 46%
    02:00 +18°C° 0 mm 2 mps 761 mmHg 45%
    03:00 +18°C° 0 mm 2 mps 761 mmHg 44%
    04:00 +18°C° 0 mm 2 mps 761 mmHg 45%
    05:00 +17°C° 0 mm 2 mps 761 mmHg 45%
    06:00 +17°C° 0 mm 2 mps 761 mmHg 46%
    07:00 +18°C° 0 mm 2 mps 761 mmHg 45%
    08:00 +20°C° 0 mm 2 mps 761 mmHg 44%
    09:00 +21°C° 0 mm 3 mps 762 mmHg 43%
    10:00 +24°C° 0 mm 3 mps 761 mmHg 39%
    11:00 +25°C° 0 mm 3 mps 761 mmHg 36%
    12:00 +27°C° 0 mm 3 mps 760 mmHg 32%
    13:00 +27°C° 0 mm 3 mps 760 mmHg 32%
    14:00 +28°C° 0 mm 3 mps 759 mmHg 31%
    15:00 +28°C° 0 mm 2 mps 759 mmHg 30%
    16:00 +26°C° 0 mm 2 mps 759 mmHg 34%
    17:00 +25°C° 0 mm 2 mps 760 mmHg 37%
    18:00 +23°C° 0 mm 2 mps 760 mmHg 41%
    19:00 +21°C° 0 mm 2 mps 761 mmHg 42%
    20:00 +21°C° 0 mm 2 mps 762 mmHg 42%
    21:00 +20°C° 0 mm 2 mps 762 mmHg 43%
    22:00 +20°C° 0 mm 2 mps 762 mmHg 43%
    23:00 +20°C° 0 mm 2 mps 762 mmHg 42%

    16 December, Sunday

    Time Temperature Precipitation Wind Pressure Humidity
    00:00 +19°C° 0 mm 2 mps 762 mmHg 41%
    01:00 +19°C° 0 mm 2 mps 762 mmHg 42%
    02:00 +19°C° 0 mm 2 mps 762 mmHg 42%
    03:00 +19°C° 0 mm 2 mps 761 mmHg 42%
    04:00 +19°C° 0 mm 2 mps 761 mmHg 42%
    05:00 +19°C° 0 mm 2 mps 761 mmHg 42%
    06:00 +19°C° 0 mm 3 mps 761 mmHg 41%
    07:00 +19°C° 0 mm 3 mps 761 mmHg 41%
    08:00 +20°C° 0 mm 3 mps 761 mmHg 40%
    09:00 +21°C° 0 mm 4 mps 762 mmHg 40%
    10:00 +22°C° 0 mm 4 mps 762 mmHg 37%
    11:00 +23°C° 0 mm 4 mps 761 mmHg 35%
    12:00 +25°C° 0 mm 4 mps 761 mmHg 33%
    13:00 +25°C° 0 mm 4 mps 760 mmHg 34%
    14:00 +25°C° 0 mm 3 mps 760 mmHg 36%
    15:00 +25°C° 0 mm 2 mps 759 mmHg 37%
    16:00 +24°C° 0 mm 2 mps 760 mmHg 38%
    17:00 +24°C° 0 mm 2 mps 760 mmHg 39%
    18:00 +23°C° 0 mm 1 mps 761 mmHg 40%
    19:00 +23°C° 0 mm 2 mps 761 mmHg 40%
    20:00 +21°C° 0 mm 2 mps 762 mmHg 40%
    21:00 +21°C° 0 mm 2 mps 762 mmHg 40%
    22:00 +21°C° 0 mm 2 mps 762 mmHg 39%
    23:00 +21°C° 0 mm 2 mps 761 mmHg 39%

    17 December, Monday

    Time Temperature Precipitation Wind Pressure Humidity
    00:00 +20°C° 0 mm 2 mps 761 mmHg 38%
    01:00 +20°C° 0 mm 2 mps 760 mmHg 38%
    02:00 +20°C° 0 mm 2 mps 760 mmHg 37%
    03:00 +20°C° 0 mm 2 mps 760 mmHg 36%
    04:00 +20°C° 0 mm 2 mps 760 mmHg 38%
    05:00 +20°C° 0 mm 2 mps 760 mmHg 39%
    06:00 +20°C° 0 mm 2 mps 760 mmHg 40%
    07:00 +20°C° 0 mm 2 mps 761 mmHg 41%
    08:00 +20°C° 0 mm 2 mps 761 mmHg 43%
    09:00 +21°C° 0 mm 3 mps 762 mmHg 45%
    10:00 +21°C° 0 mm 3 mps 761 mmHg 43%
    11:00 +22°C° 0 mm 3 mps 761 mmHg 41%
    12:00 +24°C° 0 mm 2 mps 760 mmHg 39%
    13:00 +24°C° 0 mm 2 mps 760 mmHg 40%
    14:00 +24°C° 0 mm 2 mps 759 mmHg 42%
    15:00 +24°C° 0 mm 1 mps 759 mmHg 43%
    16:00 +23°C° 0 mm 1 mps 759 mmHg 44%
    17:00 +23°C° 0 mm 1 mps 759 mmHg 45%
    18:00 +22°C° 0 mm 1 mps 760 mmHg 46%
    19:00 +21°C° 0.1 mm 2 mps 760 mmHg 49%
    20:00 +20°C° 0.1 mm 2 mps 760 mmHg 53%
    21:00 +20°C° 0.1 mm 2 mps 761 mmHg 56%
    22:00 +19°C° 0.5 mm 2 mps 761 mmHg 60%
    23:00 +19°C° 0.5 mm 2 mps 760 mmHg 64%

    18 December, Tuesday

    Time Temperature Precipitation Wind Pressure Humidity
    00:00 +18°C° 0.5 mm 2 mps 760 mmHg 68%
    01:00 +18°C° 1.5 mm 3 mps 760 mmHg 73%
    02:00 +18°C° 1.5 mm 3 mps 759 mmHg 78%
    03:00 +17°C° 1.5 mm 3 mps 759 mmHg 82%
    04:00 +17°C° 1.4 mm 4 mps 759 mmHg 84%
    05:00 +17°C° 1.4 mm 4 mps 759 mmHg 85%
    06:00 +17°C° 1.4 mm 4 mps 759 mmHg 86%
    07:00 +17°C° 2.4 mm 4 mps 759 mmHg 87%
    08:00 +17°C° 2.4 mm 4 mps 760 mmHg 88%
    09:00 +17°C° 2.4 mm 3 mps 760 mmHg 89%
    10:00 +17°C° 1 mm 3 mps 760 mmHg 89%
    11:00 +17°C° 1 mm 4 mps 759 mmHg 88%
    12:00 +17°C° 1 mm 4 mps 759 mmHg 88%
    13:00 +17°C° 1 mm 4 mps 758 mmHg 89%
    14:00 +17°C° 1 mm 3 mps 757 mmHg 89%
    15:00 +17°C° 1 mm 3 mps 756 mmHg 90%
    16:00 +17°C° 0.9 mm 3 mps 756 mmHg 90%
    17:00 +17°C° 0.9 mm 3 mps 757 mmHg 91%
    18:00 +17°C° 0.9 mm 3 mps 757 mmHg 91%
    19:00 +17°C° 0.2 mm 3 mps 757 mmHg 91%
    20:00 +17°C° 0.2 mm 2 mps 758 mmHg 91%
    21:00 +17°C° 0.2 mm 2 mps 758 mmHg 91%
    22:00 +17°C° 0 mm 2 mps 758 mmHg 92%
    23:00 +17°C° 0 mm 2 mps 758 mmHg 93%
    Show more